Regional Weather Roundup
Issued by NWS Sterling, VA

Home | Current Version | Previous Version | Text Only | Print | Product List | Glossary Off
Versions: 1 2 3 4 5 6 7 8 9 10 11 12 13 14 15 16 17 18 19 20 21 22 23 24 25 26 27 28 29 30 31 32 33 34 35 36 37 38 39 40 41 42 43 44 45 46 47 48 49 50

000
ASUS41 KLWX 271510
RWRLWX

REGIONAL WEATHER ROUNDUP
NATIONAL WEATHER SERVICE BALTIMORE MD/WASHINGTON DC
1000 AM EST FRI FEB 27 2015

Note: "FAIR" indicates few or no clouds below 12,000 feet
with no significant weather and/or obstructions to visibility.
 TC=TEMPERATURE CELSIUS

 * =Non NWS site. Station does not report precipitation (e.g. rain,
    snow, etc.), thunder, or fog.

DCZ001-MDZ009-015-VAZ040>042-051-053>054-271600-
WASHINGTON METRO

CITY           SKY/WX    TMP DP  RH WIND       PRES   REMARKS
WASHINGTON NAT PTSUNNY   32  10  40 NW15      30.43R WCI  22
DULLES         FAIR      25   8  48 NW16      30.41R WCI  12
ANDREWS AFB    PTSUNNY   29  14  52 N14       30.39R WCI  18
FT BELVOIR     CLOUDY    29  11  47 NW13      30.42R WCI  19
QUANTICO       CLOUDY    30  14  51 NE12      30.44R WCI  20
COLLEGE PARK*  PTSUNNY   30  18  59 NW8       30.41R WCI  23
LEESBURG*      SUNNY     27  12  54 N10       30.42R WCI  17
GAITHERSBURG*  MOSUNNY   27  16  63 N7        30.43R

$$

MDZ006>007-011-014-271600-
BALTIMORE METRO

CITY           SKY/WX    TMP DP  RH WIND       PRES   REMARKS
BWI AIRPORT    CLOUDY    28  17  63 N9        30.40R WCI  19
MD SCIENCE CTR   N/A     27  16  63 MISG      30.41R
MARTIN STATE   PTSUNNY   28  19  69 NW9       30.43R WCI  20
ANNAPOLIS      LGT SNOW  27  22  81 NE12      30.41R WCI  17
FORT MEADE*    PTSUNNY   30  19  64 N7        30.43R

$$

MDZ012-015-019>023-271600-
MARYLAND EASTERN SHORE

CITY           SKY/WX    TMP DP  RH WIND       PRES   REMARKS
OCEAN CITY     SUNNY     31  23  72 N10       30.37S WCI  22
SALISBURY      CLOUDY    33  20  58 N6        30.37R
BAY BRIDGE AP* LGT SNOW  28  25  86 N9G16     30.40R WCI  20
CAMBRIDGE*     MOSUNNY   32  25  74 N5        30.38S
EASTON*        CLOUDY    32  27  80 CALM      30.42R

$$

MDZ017>025-271600-
SOUTHERN MARYLAND

CITY           SKY/WX    TMP DP  RH WIND       PRES   REMARKS
PATUXENT RIVER PTSUNNY   31  25  78 NW6       30.38S
ST INIGOES     LGT SNOW  32  23  69 VRB7      30.38S
LEONARDTOWN*   CLOUDY    32  25  74 CALM      30.40R

$$

MDZ003>005-271600-
NORTH CENTRAL MARYLAND

CITY           SKY/WX    TMP DP  RH WIND       PRES   REMARKS
FREDERICK*     NOT AVBL
HAGERSTOWN APT SUNNY     22   6  50 N12       30.41R WCI  10
WESTMINSTER*   PTSUNNY   19  10  68 N7        30.38R

$$

MDZ501>502-271600-
WESTERN MARYLAND

CITY           SKY/WX    TMP DP  RH WIND       PRES   REMARKS
OAKLAND*       SUNNY      9   9 100 W3        30.24R FOG
CUMBERLAND*    SUNNY     21   5  49 CALM      30.47S

$$

VAZ025>031-271600-
SHENANDOAH VALLEY

CITY           SKY/WX    TMP DP  RH WIND       PRES   REMARKS
WINCHESTER*    MOSUNNY   27   3  36 N6        30.41R
FRONT ROYAL*   FAIR      23   9  54 N7        30.39R
LURAY*         FAIR      32  18  55 NE5       30.36S
NEW MARKET*    FAIR      24  10  56 E9        30.36S WCI  14
STAUNTON*      SUNNY     28  15  60 NE6       30.35S
WAYNESBORO*    FAIR      28  13  52 W3        30.32S

$$

WVZ021-048>050-054>055-271600-
EASTERN WEST VIRGINIA PANHANDLE

CITY           SKY/WX    TMP DP  RH WIND       PRES   REMARKS
MARTINSBURG    MOSUNNY   24   7  48 NW9       30.43R WCI  14
PETERSBURG*    NOT AVBL

$$

VAZ036>039-050-271600-
CENTRAL FOOTHILLS

CITY           SKY/WX    TMP DP  RH WIND       PRES   REMARKS
CHARLOTTESVILL SUNNY     33  20  58 N5        30.35R
CULPEPER*      SUNNY     28  14  54 N13       30.41R WCI  18
ORANGE*        SUNNY     30  18  59 N7        30.40R
GORDONSVILLE*  FAIR      29  18  62 NE8       30.38R WCI  21
WARRENTON*     PTSUNNY   31  18  59 N10       30.41R WCI  22

$$

VAZ055>057-271600-
NORTH AND CENTRAL PIEDMONT

CITY           SKY/WX    TMP DP  RH WIND       PRES   REMARKS
FREDERICKSBRG* CLOUDY    31  21  65 N8        30.40R WCI  23
STAFFORD*      CLOUDY    29  13  52 N14       30.45R WCI  18

$$

NCZ024-NYZ072-PAZ021-071-VAZ022-071-271600-
OTHER REGIONAL OBSERVATIONS

CITY           SKY/WX    TMP DP  RH WIND       PRES   REMARKS
NEW YORK CITY  SUNNY     20   4  50 VRB5      30.40R
PHILADELPHIA   CLOUDY    24  14  65 VRB6      30.42R
PITTSBURGH     MOSUNNY    7   1  76 NW6       30.45S
ROANOKE        MOSUNNY   29  12  49 W10       30.38R WCI  20
RICHMOND       CLOUDY    36  28  73 N7        30.36R
RALEIGH        MOSUNNY   36  26  67 N7        30.37R

$$

ANZ530>537-271600-
MARINE OBSERVATIONS

STATION/POSITION TIME  TEMP    WIND        PRES
                       AIR SEA DIR/SP/G
                 (UTC) (F)     (DEG/KT/KT) (MB)
THOMAS PT LIGHT  1500   27 31   20/ 16/ 17 1030.7R
BALT KEY BRIDGE  1400   27      10/ 10/ 11 1029.3R
COVE POINT       1400   28     350/  9/  9 1028.5R
LEWISETTA        1400   29 32              1028.2R
SOLOMONS ISLAND  1400      32                N/A

$$



USA.gov is the U.S. government's official web portal to all federal, state and local government web resources and services.